Flag for U.S.A. Weather past 2 weeks in Fort Worth, Texas, U.S.A.

Now
54 °F

Fog.


Feels Like: 51 °F
Forecast: 40 / 62 °F
Wind: 12 mph from South

Location: Meacham International Airport

Current Time: Mar 3, 2015 at 5:42:49 PM

Latest Report: Mar 3, 2015 at 4:53 PM


Visibility: 2 mi

Pressure: 29.81 "Hg

Humidity: 93%

Dew point: 52 °F

Location of Fort WorthLocation

Historic Weather in Fort Worth — Graph

°F

Fort Worth temperature yesterday

Maximum temperature yesterday: 40 °F (at 4:53 PM)
Minimum temperature yesterday: 34 °F (at 6:53 AM)
Average temperature yesterday: 38 °F

Past Weeks' High & Low Weather Summary

 TemperatureHumidityPressure
High70 °F (Feb 20, 3:53 PM)97% (Mar 2, 10:03 PM)30.59 "Hg (Mar 2, 10:03 PM)
Low24 °F (Feb 27, 9:53 AM)40% (Feb 17, 3:53 PM)29.65 "Hg (Feb 20, 5:53 PM)
Average40 °F76%30.20 "Hg
* Reported Feb 16 3:53 PM — Mar 3 3:53 PM, Fort Worth, Weather by CustomWeather, © 2015

Note: Actual official high and low records may vary slightly from our data, if they occured in-between our weather recording intervals... More about our weather records

Advertising

Fort Worth weather history for previous 24 hours

 ConditionsComfort  
Time TempWeatherWind HumidityBarometerVisibility
3:53 PM
Tue, Mar 3
55 °FFog.8 mph90%29.82 "Hg2 mi
3:02 PM55 °FLow clouds.9 mph87%29.84 "Hg8 mi
2:53 PM55 °FOvercast.9 mph87%29.84 "Hg8 mi
1:53 PM54 °FLow clouds.8 mph86%29.86 "Hg10 mi
12:53 PM53 °FLow clouds.6 mph83%29.91 "Hg8 mi
11:53 AM51 °FLow clouds.5 mph86%29.96 "Hg9 mi
10:53 AM50 °FLow clouds.6 mph83%29.98 "Hg9 mi
9:53 AM48 °FFog.N/A89%29.99 "Hg6 mi
9:00 AM46 °FFog.7 mph89%29.99 "Hg5 mi
7:53 AM44 °FFog.10 mph89%29.98 "Hg3 mi
6:53 AM42 °FFog.5 mph96%30.00 "Hg3 mi
5:53 AM41 °FFog.6 mph93%30.02 "Hg3 mi
5:00 AM41 °FFog.6 mph93%30.01 "Hg2 mi
3:53 AM40 °FFog.3 mph97%30.04 "Hg2 mi
3:03 AM40 °FLight rain. Fog.5 mph97%30.06 "Hg1 mi
2:53 AM40 °FFog.5 mph97%30.07 "Hg1 mi
1:53 AM40 °FFog.No wind97%30.09 "Hg0 mi
12:53 AM40 °FFog.No wind93%30.11 "Hg0 mi
11:53 PM
Mon, Mar 2
39 °FLight rain. Fog.No wind96%30.15 "Hg0 mi
10:53 PM40 °FFog.No wind97%30.17 "Hg0 mi
10:03 PM40 °FFog.No wind97%30.17 "Hg0 mi
9:53 PM40 °FFog.5 mph93%30.18 "Hg1 mi
8:53 PM40 °FFog.No wind93%30.19 "Hg1 mi
8:03 PM40 °FFog.No wind93%30.19 "Hg2 mi
7:53 PM40 °FFog.No wind89%30.20 "Hg2 mi
6:53 PM40 °FFog.No wind89%30.20 "Hg4 mi
5:53 PM40 °FFog.3 mph86%30.20 "Hg3 mi
Weather by CustomWeather, © 2015

See weather overviewHow to use our weather pages